• In Belarus
  • List of Countries
  • For 7 days
  • Water Temperature
  • Satellite Maps
  • Weather Map
  • Weather Widgets
  • user-avatar
    Login

    Hourly Weather Capinota

    Today, 28 May, Monday

    Time Temperature Precipitation Wind Pressure Humidity
    00:00 +13°C° 0 mm 2 mps 559 mmHg 73%
    01:00 +13°C° 0 mm 2 mps 558 mmHg 73%
    02:00 +12°C° 0 mm 2 mps 558 mmHg 72%
    03:00 +12°C° 0 mm 2 mps 558 mmHg 72%
    04:00 +12°C° 0 mm 2 mps 558 mmHg 72%
    05:00 +10°C° 0 mm 2 mps 557 mmHg 72%
    06:00 +12°C° 0 mm 2 mps 558 mmHg 66%
    07:00 +14°C° 0 mm 2 mps 559 mmHg 61%
    08:00 +14°C° 0 mm 3 mps 560 mmHg 56%
    09:00 +17°C° 0 mm 3 mps 561 mmHg 47%
    10:00 +19°C° 0 mm 3 mps 562 mmHg 39%
    11:00 +21°C° 0 mm 3 mps 563 mmHg 31%
    12:00 +22°C° 0 mm 4 mps 563 mmHg 28%
    13:00 +23°C° 0 mm 4 mps 562 mmHg 26%
    14:00 +25°C° 0 mm 4 mps 562 mmHg 24%
    15:00 +23°C° 0 mm 4 mps 562 mmHg 25%
    16:00 +23°C° 0 mm 4 mps 561 mmHg 26%
    17:00 +23°C° 0 mm 5 mps 561 mmHg 27%
    18:00 +20°C° 0 mm 4 mps 560 mmHg 35%
    19:00 +18°C° 0 mm 3 mps 559 mmHg 43%
    20:00 +14°C° 0 mm 3 mps 558 mmHg 50%
    21:00 +15°C° 0 mm 2 mps 558 mmHg 51%
    22:00 +14°C° 0 mm 2 mps 558 mmHg 52%
    23:00 +14°C° 0 mm 2 mps 558 mmHg 53%

    Tomorrow, 29 May, Tuesday

    Time Temperature Precipitation Wind Pressure Humidity
    00:00 +13°C° 0 mm 2 mps 558 mmHg 51%
    01:00 +13°C° 0 mm 2 mps 558 mmHg 49%
    02:00 +12°C° 0 mm 2 mps 557 mmHg 47%
    03:00 +12°C° 0 mm 2 mps 557 mmHg 47%
    04:00 +10°C° 0 mm 2 mps 557 mmHg 46%
    05:00 +10°C° 0 mm 2 mps 557 mmHg 45%
    06:00 +11°C° 0 mm 3 mps 558 mmHg 39%
    07:00 +12°C° 0 mm 3 mps 559 mmHg 34%
    08:00 +13°C° 0 mm 3 mps 560 mmHg 28%
    09:00 +17°C° 0 mm 2 mps 561 mmHg 22%
    10:00 +19°C° 0 mm 2 mps 562 mmHg 16%
    11:00 +21°C° 0 mm 2 mps 563 mmHg 10%
    12:00 +23°C° 0 mm 2 mps 562 mmHg 10%
    13:00 +24°C° 0 mm 2 mps 562 mmHg 10%
    14:00 +25°C° 0 mm 3 mps 561 mmHg 9%
    15:00 +24°C° 0 mm 3 mps 561 mmHg 11%
    16:00 +24°C° 0 mm 3 mps 560 mmHg 14%
    17:00 +22°C° 0 mm 4 mps 560 mmHg 16%
    18:00 +20°C° 0 mm 3 mps 559 mmHg 24%
    19:00 +17°C° 0 mm 3 mps 558 mmHg 32%
    20:00 +13°C° 0 mm 3 mps 557 mmHg 40%
    21:00 +14°C° 0 mm 2 mps 557 mmHg 42%
    22:00 +13°C° 0 mm 2 mps 558 mmHg 43%
    23:00 +12°C° 0 mm 2 mps 558 mmHg 45%

    Day after tomorrow, 30 May, Wednesday

    Time Temperature Precipitation Wind Pressure Humidity
    00:00 +12°C° 0 mm 2 mps 557 mmHg 43%
    01:00 +12°C° 0 mm 2 mps 557 mmHg 41%
    02:00 +10°C° 0 mm 3 mps 557 mmHg 40%
    03:00 +10°C° 0 mm 3 mps 557 mmHg 38%
    04:00 +9°C° 0 mm 3 mps 556 mmHg 36%
    05:00 +9°C° 0 mm 3 mps 556 mmHg 34%
    06:00 +10°C° 0 mm 3 mps 557 mmHg 30%
    07:00 +11°C° 0 mm 3 mps 558 mmHg 26%
    08:00 +13°C° 0 mm 3 mps 559 mmHg 23%
    09:00 +16°C° 0 mm 2 mps 560 mmHg 18%
    10:00 +18°C° 0 mm 2 mps 561 mmHg 13%
    11:00 +21°C° 0 mm 2 mps 562 mmHg 8%
    12:00 +21°C° 0 mm 2 mps 562 mmHg 8%
    13:00 +23°C° 0 mm 2 mps 562 mmHg 7%
    14:00 +24°C° 0 mm 3 mps 561 mmHg 6%
    15:00 +24°C° 0 mm 3 mps 561 mmHg 8%
    16:00 +22°C° 0 mm 3 mps 560 mmHg 10%
    17:00 +22°C° 0 mm 4 mps 560 mmHg 13%
    18:00 +19°C° 0 mm 3 mps 559 mmHg 21%
    19:00 +16°C° 0 mm 3 mps 558 mmHg 29%
    20:00 +13°C° 0 mm 2 mps 557 mmHg 38%
    21:00 +13°C° 0 mm 2 mps 557 mmHg 40%
    22:00 +12°C° 0 mm 2 mps 557 mmHg 43%
    23:00 +10°C° 0 mm 2 mps 557 mmHg 46%

    31 May, Thursday

    Time Temperature Precipitation Wind Pressure Humidity
    00:00 +10°C° 0 mm 1 mps 556 mmHg 48%
    01:00 +10°C° 0 mm 1 mps 556 mmHg 51%
    02:00 +9°C° 0 mm 1 mps 556 mmHg 53%
    03:00 +9°C° 0 mm 1 mps 555 mmHg 57%
    04:00 +8°C° 0 mm 1 mps 555 mmHg 61%
    05:00 +7°C° 0 mm 1 mps 555 mmHg 65%
    06:00 +9°C° 0 mm 1 mps 556 mmHg 55%
    07:00 +11°C° 0 mm 1 mps 558 mmHg 45%
    08:00 +13°C° 0 mm 1 mps 559 mmHg 36%
    09:00 +15°C° 0 mm 1 mps 560 mmHg 29%
    10:00 +18°C° 0 mm 1 mps 561 mmHg 22%
    11:00 +19°C° 0 mm 2 mps 562 mmHg 16%
    12:00 +20°C° 0 mm 2 mps 561 mmHg 15%
    13:00 +21°C° 0 mm 2 mps 561 mmHg 15%
    14:00 +22°C° 0 mm 3 mps 560 mmHg 14%
    15:00 +21°C° 0 mm 3 mps 560 mmHg 17%
    16:00 +21°C° 0 mm 3 mps 560 mmHg 19%
    17:00 +21°C° 0 mm 3 mps 559 mmHg 21%
    18:00 +18°C° 0 mm 3 mps 559 mmHg 32%
    19:00 +16°C° 0 mm 3 mps 558 mmHg 42%
    20:00 +13°C° 0 mm 3 mps 558 mmHg 53%
    21:00 +13°C° 0 mm 2 mps 558 mmHg 58%
    22:00 +12°C° 0 mm 2 mps 558 mmHg 64%
    23:00 +12°C° 0 mm 2 mps 558 mmHg 70%

    1 June, Friday

    Time Temperature Precipitation Wind Pressure Humidity
    00:00 +11°C° 0 mm 1 mps 557 mmHg 72%
    01:00 +11°C° 0 mm 1 mps 557 mmHg 75%
    02:00 +10°C° 0 mm 1 mps 556 mmHg 77%
    03:00 +10°C° 0 mm 1 mps 556 mmHg 76%
    04:00 +10°C° 0 mm 1 mps 556 mmHg 75%
    05:00 +8°C° 0 mm 2 mps 556 mmHg 74%
    06:00 +10°C° 0 mm 2 mps 557 mmHg 66%
    07:00 +12°C° 0 mm 2 mps 559 mmHg 59%
    08:00 +13°C° 0 mm 2 mps 560 mmHg 51%
    09:00 +15°C° 0 mm 2 mps 561 mmHg 45%
    10:00 +17°C° 0 mm 2 mps 561 mmHg 38%
    11:00 +19°C° 0 mm 3 mps 562 mmHg 32%
    12:00 +20°C° 0 mm 3 mps 561 mmHg 30%
    13:00 +20°C° 0 mm 3 mps 561 mmHg 28%
    14:00 +21°C° 0 mm 3 mps 561 mmHg 26%
    15:00 +21°C° 0 mm 4 mps 560 mmHg 28%
    16:00 +21°C° 0 mm 4 mps 560 mmHg 31%
    17:00 +20°C° 0 mm 4 mps 560 mmHg 33%
    18:00 +18°C° 0 mm 4 mps 559 mmHg 44%
    19:00 +16°C° 0 mm 3 mps 559 mmHg 56%
    20:00 +13°C° 0 mm 3 mps 558 mmHg 68%
    21:00 +13°C° 0 mm 3 mps 559 mmHg 71%
    22:00 +13°C° 0 mm 2 mps 559 mmHg 75%
    23:00 +13°C° 0 mm 2 mps 559 mmHg 78%

    2 June, Saturday

    Time Temperature Precipitation Wind Pressure Humidity
    00:00 +12°C° 0 mm 2 mps 558 mmHg 79%
    01:00 +12°C° 0 mm 2 mps 558 mmHg 80%
    02:00 +10°C° 0 mm 2 mps 558 mmHg 81%
    03:00 +10°C° 0 mm 2 mps 557 mmHg 80%
    04:00 +10°C° 0 mm 2 mps 557 mmHg 80%
    05:00 +9°C° 0 mm 2 mps 557 mmHg 79%
    06:00 +10°C° 0 mm 2 mps 558 mmHg 73%
    07:00 +12°C° 0 mm 2 mps 559 mmHg 66%
    08:00 +13°C° 0 mm 2 mps 560 mmHg 60%
    09:00 +15°C° 0 mm 2 mps 561 mmHg 51%
    10:00 +17°C° 0 mm 3 mps 561 mmHg 43%
    11:00 +19°C° 0 mm 3 mps 562 mmHg 34%
    12:00 +20°C° 0 mm 3 mps 562 mmHg 33%
    13:00 +21°C° 0 mm 4 mps 562 mmHg 31%
    14:00 +22°C° 0 mm 4 mps 561 mmHg 30%
    15:00 +22°C° 0 mm 4 mps 561 mmHg 33%
    16:00 +21°C° 0 mm 5 mps 560 mmHg 37%
    17:00 +20°C° 0 mm 5 mps 559 mmHg 40%
    18:00 +18°C° 0 mm 4 mps 559 mmHg 50%
    19:00 +17°C° 0 mm 4 mps 559 mmHg 59%
    20:00 +14°C° 0 mm 3 mps 558 mmHg 69%
    21:00 +13°C° 0 mm 3 mps 558 mmHg 72%
    22:00 +14°C° 0 mm 2 mps 558 mmHg 74%
    23:00 +13°C° 0 mm 2 mps 558 mmHg 77%
    Show more